| time (UTC) | temp F | wind direction | speed MPH | gust MPH | rain 1hr in | rain 24hr in | rain mn in | humidity % | barometer mb |
| 20260901192514 | 84 | 278 | 6.0 | 7.0 | 0.00 | 0.00 | 0.00 | 33 | 1017.0 |
| 20260901192326 | 84 | 298 | 6.0 | 0.0 | 0.00 | 0.00 | 0.00 | 33 | 1017.0 |
| 20260901192008 | 84 | 231 | 4.0 | 7.0 | 0.00 | 0.00 | 0.00 | 33 | 1017.0 |
| 20260901191844 | 85 | 213 | 7.0 | 0.0 | 0.00 | 0.00 | 0.00 | 33 | 1017.0 |
| 20260901191557 | 84 | 218 | 5.0 | 7.0 | 0.00 | 0.00 | 0.00 | 33 | 1017.0 |
| 20260901191337 | 85 | 268 | 7.0 | 0.0 | 0.00 | 0.00 | 0.00 | 33 | 1017.0 |
| 20260901191051 | 84 | 275 | 4.0 | 7.0 | 0.00 | 0.00 | 0.00 | 33 | 1017.0 |
| 20260901190856 | 85 | 261 | 4.0 | 0.0 | 0.00 | 0.00 | 0.00 | 33 | 1017.0 |
| 20260901190527 | 84 | 287 | 2.0 | 6.0 | 0.00 | 0.00 | 0.00 | 33 | 1017.0 |
| 20260901190333 | 85 | 261 | 6.0 | 0.0 | 0.00 | 0.00 | 0.00 | 33 | 1017.0 |
| 20260901190028 | 84 | 297 | 2.0 | 6.0 | 0.00 | 0.00 | 0.00 | 33 | 1017.0 |
| 20260901185829 | 84 | 302 | 3.0 | 0.0 | 0.00 | 0.00 | 0.00 | 33 | 1017.0 |
| 20260901185516 | 83 | 285 | 2.0 | 6.0 | 0.00 | 0.00 | 0.00 | 33 | 1017.0 |
| 20260901185327 | 83 | 310 | 4.0 | 0.0 | 0.00 | 0.00 | 0.00 | 33 | 1017.0 |
| 20260901185010 | 82 | 289 | 3.0 | 6.0 | 0.00 | 0.00 | 0.00 | 33 | 1017.0 |
| 20260901184904 | 83 | 188 | 4.0 | 0.0 | 0.00 | 0.00 | 0.00 | 33 | 1017.0 |
| 20260901184541 | 83 | 287 | 4.0 | 6.0 | 0.00 | 0.00 | 0.00 | 33 | 1017.0 |
| 20260901184401 | 83 | 263 | 4.0 | 0.0 | 0.00 | 0.00 | 0.00 | 33 | 1017.0 |
| 20260901184017 | 82 | 339 | 1.0 | 6.0 | 0.00 | 0.00 | 0.00 | 33 | 1017.0 |
| 20260901183839 | 82 | 286 | 2.0 | 0.0 | 0.00 | 0.00 | 0.00 | 33 | 1017.0 |
| 20260901183510 | 81 | 235 | 0.0 | 6.0 | 0.00 | 0.00 | 0.00 | 33 | 1017.0 |
| 20260901183334 | 82 | 230 | 5.0 | 0.0 | 0.00 | 0.00 | 0.00 | 33 | 1017.0 |
| 20260901183013 | 81 | 273 | 5.0 | 7.0 | 0.00 | 0.00 | 0.00 | 33 | 1017.0 |
| 20260901182832 | 82 | 328 | 1.0 | 0.0 | 0.00 | 0.00 | 0.00 | 33 | 1017.0 |
| 20260901182556 | 81 | 295 | 3.0 | 7.0 | 0.00 | 0.00 | 0.00 | 33 | 1017.0 |
| 20260901182329 | 82 | 297 | 6.0 | 0.0 | 0.00 | 0.00 | 0.00 | 33 | 1017.0 |
| 20260901182051 | 81 | 294 | 4.0 | 7.0 | 0.00 | 0.00 | 0.00 | 33 | 1017.0 |
| 20260901181825 | 81 | 284 | 4.0 | 0.0 | 0.00 | 0.00 | 0.00 | 33 | 1017.0 |
| 20260901181550 | 81 | 297 | 4.0 | 6.0 | 0.00 | 0.00 | 0.00 | 33 | 1017.0 |
| 20260901181340 | 81 | 264 | 6.0 | 0.0 | 0.00 | 0.00 | 0.00 | 33 | 1017.0 |
| 20260901181039 | 80 | 282 | 3.0 | 6.0 | 0.00 | 0.00 | 0.00 | 33 | 1017.0 |
| 20260901180838 | 81 | 305 | 2.0 | 0.0 | 0.00 | 0.00 | 0.00 | 33 | 1017.0 |
| 20260901180534 | 80 | 294 | 3.0 | 6.0 | 0.00 | 0.00 | 0.00 | 33 | 1017.0 |
| 20260901180334 | 80 | 273 | 1.0 | 0.0 | 0.00 | 0.00 | 0.00 | 33 | 1017.0 |
| 20260901180030 | 79 | 260 | 3.0 | 3.0 | 0.00 | 0.00 | 0.00 | 33 | 1017.0 |
| 20260901175854 | 80 | 258 | 6.0 | 0.0 | 0.00 | 0.00 | 0.00 | 33 | 1017.0 |
| 20260901175505 | 78 | 331 | 0.0 | 1.0 | 0.00 | 0.00 | 0.00 | 33 | 1017.0 |
| 20260901175330 | 79 | 331 | 0.0 | 0.0 | 0.00 | 0.00 | 0.00 | 33 | 1017.0 |
| 20260901175056 | 78 | 331 | 1.0 | 2.0 | 0.00 | 0.00 | 0.00 | 33 | 1017.0 |
| 20260901174831 | 78 | 285 | 2.0 | 0.0 | 0.00 | 0.00 | 0.00 | 33 | 1017.0 |
| 20260901174550 | 78 | 282 | 0.0 | 4.0 | 0.00 | 0.00 | 0.00 | 33 | 1017.0 |
| 20260901174347 | 78 | 282 | 4.0 | 0.0 | 0.00 | 0.00 | 0.00 | 33 | 1017.0 |
| 20260901174045 | 77 | 282 | 2.0 | 4.0 | 0.00 | 0.00 | 0.00 | 33 | 1017.0 |
| 20260901173905 | 78 | 282 | 0.0 | 0.0 | 0.00 | 0.00 | 0.00 | 33 | 1017.0 |
| 20260901173521 | 77 | 283 | 3.0 | 4.0 | 0.00 | 0.00 | 0.00 | 33 | 1017.0 |
| 20260901173340 | 77 | 291 | 5.0 | 0.0 | 0.00 | 0.00 | 0.00 | 33 | 1017.0 |
| 20260901173011 | 76 | 291 | 0.0 | 4.0 | 0.00 | 0.00 | 0.00 | 33 | 1017.0 |
| 20260901172836 | 76 | 291 | 2.0 | 0.0 | 0.00 | 0.00 | 0.00 | 33 | 1017.0 |
| 20260901172509 | 76 | 278 | 3.0 | 4.0 | 0.00 | 0.00 | 0.00 | 33 | 1017.0 |
| 20260901172332 | 76 | 272 | 5.0 | 0.0 | 0.00 | 0.00 | 0.00 | 33 | 1017.0 |
| 20260901172056 | 75 | 267 | 2.0 | 4.0 | 0.00 | 0.00 | 0.00 | 33 | 1017.0 |
| 20260901171829 | 75 | 268 | 2.0 | 0.0 | 0.00 | 0.00 | 0.00 | 33 | 1017.0 |
| 20260901171551 | 74 | 293 | 2.0 | 3.0 | 0.00 | 0.00 | 0.00 | 33 | 1017.0 |
| 20260901171345 | 74 | 293 | 7.0 | 0.0 | 0.00 | 0.00 | 0.00 | 33 | 1017.0 |
| 20260901171048 | 73 | 325 | 1.0 | 3.0 | 0.00 | 0.00 | 0.00 | 33 | 1017.0 |
| 20260901170842 | 74 | 312 | 0.0 | 0.0 | 0.00 | 0.00 | 0.00 | 33 | 1017.0 |
| 20260901170540 | 73 | 312 | 1.0 | 3.0 | 0.00 | 0.00 | 0.00 | 33 | 1017.0 |
| 20260901170339 | 73 | 312 | 0.0 | 0.0 | 0.00 | 0.00 | 0.00 | 33 | 1017.0 |
| 20260901170034 | 73 | 314 | 1.0 | 6.0 | 0.00 | 0.00 | 0.00 | 33 | 1017.0 |
| 20260901165835 | 74 | 313 | 3.0 | 0.0 | 0.00 | 0.00 | 0.00 | 33 | 1017.0 |
| 20260901165531 | 73 | 294 | 1.0 | 6.0 | 0.00 | 0.00 | 0.00 | 33 | 1017.0 |
| 20260901165335 | 74 | 294 | 0.0 | 0.0 | 0.00 | 0.00 | 0.00 | 33 | 1017.0 |
| 20260901165024 | 73 | 292 | 4.0 | 6.0 | 0.00 | 0.00 | 0.00 | 33 | 1017.0 |
| 20260901164832 | 73 | 277 | 3.0 | 0.0 | 0.00 | 0.00 | 0.00 | 33 | 1017.0 |
| 20260901164520 | 72 | 293 | 4.0 | 5.0 | 0.00 | 0.00 | 0.00 | 33 | 1017.0 |
| 20260901164410 | 73 | 306 | 3.0 | 0.0 | 0.00 | 0.00 | 0.00 | 33 | 1017.0 |
| 20260901164046 | 72 | 296 | 1.0 | 4.0 | 0.00 | 0.00 | 0.00 | 33 | 1017.0 |
| 20260901163843 | 72 | 299 | 1.0 | 0.0 | 0.00 | 0.00 | 0.00 | 33 | 1017.0 |
| 20260901163543 | 71 | 300 | 2.0 | 5.0 | 0.00 | 0.00 | 0.00 | 33 | 1017.0 |
| 20260901163403 | 72 | 310 | 3.0 | 0.0 | 0.00 | 0.00 | 0.00 | 33 | 1017.0 |
| 20260901163018 | 71 | 273 | 3.0 | 5.0 | 0.00 | 0.00 | 0.00 | 33 | 1017.0 |
| 20260901162838 | 71 | 275 | 2.0 | 0.0 | 0.00 | 0.00 | 0.00 | 33 | 1017.0 |
| 20260901162511 | 70 | 280 | 3.0 | 4.0 | 0.00 | 0.00 | 0.00 | 33 | 1017.0 |
| 20260901162334 | 71 | 310 | 5.0 | 0.0 | 0.00 | 0.00 | 0.00 | 33 | 1017.0 |
| 20260901162007 | 70 | 303 | 1.0 | 3.0 | 0.00 | 0.00 | 0.00 | 33 | 1017.0 |
| 20260901161833 | 70 | 303 | 3.0 | 0.0 | 0.00 | 0.00 | 0.00 | 33 | 1017.0 |
| 20260901161606 | 70 | 313 | 1.0 | 3.0 | 0.00 | 0.00 | 0.00 | 33 | 1017.0 |
| 20260901161503 | 69 | 313 | 2.0 | 3.0 | 0.00 | 0.00 | 0.00 | 33 | 1017.0 |
| 20260901161334 | 70 | 313 | 2.0 | 0.0 | 0.00 | 0.00 | 0.00 | 33 | 1017.0 |
| 20260901161056 | 69 | 313 | 3.0 | 3.0 | 0.00 | 0.00 | 0.00 | 33 | 1017.0 |
| 20260901160833 | 70 | 314 | 4.0 | 0.0 | 0.00 | 0.00 | 0.00 | 33 | 1017.0 |
| 20260901160551 | 69 | 310 | 2.0 | 5.0 | 0.00 | 0.00 | 0.00 | 33 | 1017.0 |
| 20260901160329 | 69 | 304 | 5.0 | 0.0 | 0.00 | 0.00 | 0.00 | 33 | 1017.0 |
| 20260901160046 | 68 | 302 | 2.0 | 5.0 | 0.00 | 0.00 | 0.00 | 33 | 1017.0 |
| 20260901155844 | 69 | 302 | 5.0 | 0.0 | 0.00 | 0.00 | 0.00 | 33 | 1017.0 |
| 20260901155538 | 68 | 295 | 3.0 | 5.0 | 0.00 | 0.00 | 0.00 | 33 | 1017.0 |
| 20260901155340 | 68 | 307 | 5.0 | 0.0 | 0.00 | 0.00 | 0.00 | 33 | 1017.0 |
| 20260901155033 | 67 | 328 | 0.0 | 1.0 | 0.00 | 0.00 | 0.00 | 33 | 1017.0 |
| 20260901154840 | 68 | 328 | 0.0 | 0.0 | 0.00 | 0.00 | 0.00 | 33 | 1017.0 |
| 20260901154524 | 67 | 328 | 1.0 | 1.0 | 0.00 | 0.00 | 0.00 | 33 | 1017.0 |
| 20260901154355 | 68 | 329 | 2.0 | 0.0 | 0.00 | 0.00 | 0.00 | 33 | 1017.0 |
| 20260901154057 | 67 | 328 | 0.0 | 2.0 | 0.00 | 0.00 | 0.00 | 33 | 1017.0 |
| 20260901154002 | 67 | 328 | 0.0 | 2.0 | 0.00 | 0.00 | 0.00 | 33 | 1017.0 |
| 20260901153830 | 67 | 329 | 0.0 | 0.0 | 0.00 | 0.00 | 0.00 | 33 | 1017.0 |
| 20260901153550 | 67 | 328 | 1.0 | 2.0 | 0.00 | 0.00 | 0.00 | 33 | 1017.0 |
| 20260901153326 | 67 | 328 | 0.0 | 0.0 | 0.00 | 0.00 | 0.00 | 33 | 1017.0 |
| 20260901153045 | 66 | 328 | 0.0 | 0.0 | 0.00 | 0.00 | 0.00 | 33 | 1017.0 |
| 20260901152844 | 67 | 328 | 0.0 | 0.0 | 0.00 | 0.00 | 0.00 | 33 | 1017.0 |
| 20260901152517 | 66 | 329 | 0.0 | 0.0 | 0.00 | 0.00 | 0.00 | 33 | 1017.0 |
| 20260901152339 | 66 | 329 | 0.0 | 0.0 | 0.00 | 0.00 | 0.00 | 33 | 1017.0 |
| 20260901152015 | 66 | 329 | 0.0 | 0.0 | 0.00 | 0.00 | 0.00 | 33 | 1017.0 |
| 20260901151856 | 66 | 329 | 0.0 | 0.0 | 0.00 | 0.00 | 0.00 | 33 | 1017.0 |
| 20260901151542 | 66 | 329 | 0.0 | 0.0 | 0.00 | 0.00 | 0.00 | 33 | 1017.0 |
| 20260901151332 | 66 | 329 | 0.0 | 0.0 | 0.00 | 0.00 | 0.00 | 33 | 1017.0 |
| 20260901151037 | 65 | 329 | 0.0 | 0.0 | 0.00 | 0.00 | 0.00 | 33 | 1017.0 |
| 20260901150829 | 65 | 329 | 0.0 | 0.0 | 0.00 | 0.00 | 0.00 | 33 | 1017.0 |
| 20260901150533 | 65 | 329 | 0.0 | 0.0 | 0.00 | 0.00 | 0.00 | 33 | 1017.0 |
| 20260901150348 | 65 | 329 | 0.0 | 0.0 | 0.00 | 0.00 | 0.00 | 33 | 1017.0 |
| 20260901150028 | 64 | 329 | 0.0 | 3.0 | 0.00 | 0.00 | 0.00 | 33 | 1017.0 |
| 20260901145845 | 65 | 329 | 0.0 | 0.0 | 0.00 | 0.00 | 0.00 | 33 | 1017.0 |
| 20260901145521 | 64 | 329 | 0.0 | 3.0 | 0.00 | 0.00 | 0.00 | 33 | 1017.0 |
| 20260901145340 | 65 | 330 | 2.0 | 0.0 | 0.00 | 0.00 | 0.00 | 33 | 1017.0 |
| 20260901145015 | 64 | 315 | 0.0 | 0.0 | 0.00 | 0.00 | 0.00 | 33 | 1017.0 |
| 20260901144835 | 65 | 311 | 0.0 | 0.0 | 0.00 | 0.00 | 0.00 | 33 | 1017.0 |
| 20260901092552 | 64 | 276 | 0.0 | 0.0 | 0.00 | 0.00 | 0.00 | 33 | 1017.0 |
| 20260901092340 | 65 | 276 | 0.0 | 0.0 | 0.00 | 0.00 | 0.00 | 33 | 1017.0 |
| 20260901092045 | 64 | 276 | 0.0 | 0.0 | 0.00 | 0.00 | 0.00 | 33 | 1017.0 |
| 20260901091833 | 65 | 276 | 0.0 | 0.0 | 0.00 | 0.00 | 0.00 | 33 | 1017.0 |
| 20260901091557 | 65 | 276 | 0.0 | 0.0 | 0.00 | 0.00 | 0.00 | 33 | 1017.0 |
| 20260901091330 | 65 | 276 | 0.0 | 0.0 | 0.00 | 0.00 | 0.00 | 33 | 1017.0 |
| 20260901091037 | 65 | 276 | 0.0 | 0.0 | 0.00 | 0.00 | 0.00 | 33 | 1017.0 |
| 20260901090828 | 65 | 276 | 0.0 | 0.0 | 0.00 | 0.00 | 0.00 | 33 | 1017.0 |
| 20260901090531 | 65 | 276 | 0.0 | 0.0 | 0.00 | 0.00 | 0.00 | 33 | 1017.0 |
| 20260901090346 | 65 | 276 | 0.0 | 0.0 | 0.00 | 0.00 | 0.00 | 33 | 1017.0 |
| 20260901090121 | 65 | 276 | 0.0 | 0.0 | 0.00 | 0.00 | 0.00 | 33 | 1017.0 |
| 20260901090041 | 70 | 238 | 1.0 | 0.0 | 0.00 | 0.00 | 0.00 | 33 | 1017.0 |
| 20260901033508 | 70 | 238 | 3.0 | 3.0 | 0.00 | 0.00 | 0.00 | 33 | 1017.0 |
| 20260901033338 | 70 | 238 | 3.0 | 0.0 | 0.00 | 0.00 | 0.00 | 33 | 1017.0 |
| 20260901033107 | 70 | 238 | 1.0 | 2.0 | 0.00 | 0.00 | 0.00 | 33 | 1017.0 |
| 20260901033002 | 70 | 238 | 2.0 | 2.0 | 0.00 | 0.00 | 0.00 | 33 | 1017.0 |
| 20260901032833 | 70 | 238 | 1.0 | 0.0 | 0.00 | 0.00 | 0.00 | 33 | 1017.0 |
| 20260901032551 | 70 | 238 | 2.0 | 2.0 | 0.00 | 0.00 | 0.00 | 33 | 1017.0 |
| 20260901032329 | 71 | 238 | 2.0 | 0.0 | 0.00 | 0.00 | 0.00 | 33 | 1017.0 |
| 20260901032045 | 70 | 238 | 1.0 | 2.0 | 0.00 | 0.00 | 0.00 | 33 | 1017.0 |
| 20260901031844 | 71 | 238 | 2.0 | 0.0 | 0.00 | 0.00 | 0.00 | 33 | 1017.0 |
| 20260901031540 | 70 | 238 | 2.0 | 2.0 | 0.00 | 0.00 | 0.00 | 33 | 1017.0 |
| 20260901031340 | 71 | 238 | 3.0 | 0.0 | 0.00 | 0.00 | 0.00 | 33 | 1017.0 |
| 20260901031033 | 71 | 238 | 1.0 | 3.0 | 0.00 | 0.00 | 0.00 | 33 | 1017.0 |
| 20260901030858 | 71 | 238 | 3.0 | 0.0 | 0.00 | 0.00 | 0.00 | 33 | 1017.0 |
| 20260901030511 | 71 | 238 | 1.0 | 3.0 | 0.00 | 0.00 | 0.00 | 33 | 1017.0 |
| 20260901030335 | 71 | 238 | 5.0 | 0.0 | 0.00 | 0.00 | 0.00 | 33 | 1017.0 |
| 20260901030100 | 71 | 238 | 2.0 | 3.0 | 0.00 | 0.00 | 0.00 | 33 | 1017.0 |
| 20260901030007 | 71 | 238 | 3.0 | 3.0 | 0.00 | 0.00 | 0.00 | 33 | 1017.0 |
| 20260901025852 | 72 | 238 | 3.0 | 0.0 | 0.00 | 0.00 | 0.00 | 33 | 1017.0 |
| 20260901025535 | 71 | 238 | 1.0 | 2.0 | 0.00 | 0.00 | 0.00 | 33 | 1017.0 |
| 20260901025328 | 72 | 238 | 2.0 | 0.0 | 0.00 | 0.00 | 0.00 | 33 | 1017.0 |
| 20260901025030 | 72 | 238 | 2.0 | 3.0 | 0.00 | 0.00 | 0.00 | 33 | 1017.0 |
| 20260901024824 | 72 | 238 | 2.0 | 0.0 | 0.00 | 0.00 | 0.00 | 33 | 1017.0 |
| 20260901024527 | 72 | 238 | 2.0 | 3.0 | 0.00 | 0.00 | 0.00 | 33 | 1017.0 |
| 20260901024340 | 72 | 238 | 3.0 | 0.0 | 0.00 | 0.00 | 0.00 | 33 | 1017.0 |
| 20260901024017 | 72 | 238 | 2.0 | 3.0 | 0.00 | 0.00 | 0.00 | 33 | 1017.0 |
| 20260901023837 | 73 | 238 | 6.0 | 0.0 | 0.00 | 0.00 | 0.00 | 33 | 1017.0 |
| 20260901023545 | 72 | 239 | 2.0 | 4.0 | 0.00 | 0.00 | 0.00 | 33 | 1017.0 |
| 20260901023333 | 73 | 239 | 3.0 | 0.0 | 0.00 | 0.00 | 0.00 | 33 | 1017.0 |
| 20260901023041 | 73 | 224 | 2.0 | 4.0 | 0.00 | 0.00 | 0.00 | 33 | 1017.0 |
| 20260901022830 | 73 | 224 | 3.0 | 0.0 | 0.00 | 0.00 | 0.00 | 33 | 1017.0 |
| 20260901022536 | 73 | 224 | 3.0 | 4.0 | 0.00 | 0.00 | 0.00 | 33 | 1017.0 |
| 20260901022347 | 74 | 228 | 4.0 | 0.0 | 0.00 | 0.00 | 0.00 | 33 | 1017.0 |
| 20260901022028 | 74 | 235 | 3.0 | 4.0 | 0.00 | 0.00 | 0.00 | 33 | 1017.0 |
| 20260901021902 | 75 | 253 | 4.0 | 0.0 | 0.00 | 0.00 | 0.00 | 33 | 1017.0 |
| 20260901021606 | 74 | 235 | 3.0 | 4.0 | 0.00 | 0.00 | 0.00 | 33 | 1017.0 |
| 20260901021501 | 75 | 285 | 2.0 | 4.0 | 0.00 | 0.00 | 0.00 | 33 | 1017.0 |
| 20260901021337 | 75 | 219 | 6.0 | 0.0 | 0.00 | 0.00 | 0.00 | 33 | 1017.0 |
| 20260901021052 | 75 | 278 | 3.0 | 5.0 | 0.00 | 0.00 | 0.00 | 33 | 1017.0 |
| 20260901020854 | 76 | 259 | 3.0 | 0.0 | 0.00 | 0.00 | 0.00 | 33 | 1017.0 |
| 20260901020526 | 76 | 234 | 3.0 | 6.0 | 0.00 | 0.00 | 0.00 | 33 | 1017.0 |
| 20260901020331 | 77 | 292 | 3.0 | 0.0 | 0.00 | 0.00 | 0.00 | 33 | 1017.0 |
| 20260901020020 | 77 | 300 | 5.0 | 6.0 | 0.00 | 0.00 | 0.00 | 33 | 1017.0 |
| 20260901015827 | 77 | 289 | 4.0 | 0.0 | 0.00 | 0.00 | 0.00 | 33 | 1017.0 |
| 20260901015513 | 77 | 284 | 3.0 | 3.0 | 0.00 | 0.00 | 0.00 | 33 | 1017.0 |
| 20260901015341 | 78 | 284 | 3.0 | 0.0 | 0.00 | 0.00 | 0.00 | 33 | 1017.0 |
| 20260901015005 | 77 | 284 | 2.0 | 5.0 | 0.00 | 0.00 | 0.00 | 33 | 1017.0 |
| 20260901014900 | 78 | 284 | 3.0 | 0.0 | 0.00 | 0.00 | 0.00 | 33 | 1017.0 |
| 20260901014537 | 78 | 288 | 3.0 | 5.0 | 0.00 | 0.00 | 0.00 | 33 | 1017.0 |
| 20260901014334 | 78 | 247 | 2.0 | 0.0 | 0.00 | 0.00 | 0.00 | 33 | 1017.0 |
| 20260901014030 | 78 | 229 | 4.0 | 5.0 | 0.00 | 0.00 | 0.00 | 33 | 1017.0 |
| 20260901013835 | 79 | 250 | 4.0 | 0.0 | 0.00 | 0.00 | 0.00 | 33 | 1017.0 |
| 20260901013521 | 78 | 273 | 3.0 | 5.0 | 0.00 | 0.00 | 0.00 | 33 | 1017.0 |
| 20260901013330 | 79 | 264 | 2.0 | 0.0 | 0.00 | 0.00 | 0.00 | 33 | 1017.0 |
| 20260901013017 | 78 | 283 | 2.0 | 6.0 | 0.00 | 0.00 | 0.00 | 33 | 1017.0 |
| 20260901012826 | 79 | 246 | 3.0 | 0.0 | 0.00 | 0.00 | 0.00 | 33 | 1017.0 |
| 20260901012508 | 79 | 245 | 3.0 | 6.0 | 0.00 | 0.00 | 0.00 | 33 | 1017.0 |
| 20260901012341 | 79 | 245 | 5.0 | 0.0 | 0.00 | 0.00 | 0.00 | 33 | 1017.0 |
| 20260901012058 | 79 | 299 | 4.0 | 6.0 | 0.00 | 0.00 | 0.00 | 33 | 1017.0 |
| 20260901012002 | 79 | 271 | 4.0 | 6.0 | 0.00 | 0.00 | 0.00 | 33 | 1017.0 |
| 20260901011835 | 80 | 268 | 5.0 | 0.0 | 0.00 | 0.00 | 0.00 | 33 | 1017.0 |
| 20260901011536 | 80 | 277 | 4.0 | 6.0 | 0.00 | 0.00 | 0.00 | 33 | 1017.0 |
| 20260901011333 | 80 | 267 | 7.0 | 0.0 | 0.00 | 0.00 | 0.00 | 33 | 1017.0 |
| 20260901011029 | 80 | 219 | 2.0 | 6.0 | 0.00 | 0.00 | 0.00 | 33 | 1017.0 |
| 20260901010853 | 81 | 258 | 6.0 | 0.0 | 0.00 | 0.00 | 0.00 | 33 | 1017.0 |
| 20260901010603 | 81 | 288 | 4.0 | 6.0 | 0.00 | 0.00 | 0.00 | 33 | 1017.0 |
| 20260901010503 | 81 | 281 | 5.0 | 6.0 | 0.00 | 0.00 | 0.00 | 33 | 1017.0 |
| 20260901010327 | 81 | 295 | 4.0 | 0.0 | 0.00 | 0.00 | 0.00 | 33 | 1017.0 |
| 20260901010100 | 81 | 297 | 3.0 | 6.0 | 0.00 | 0.00 | 0.00 | 33 | 1017.0 |
| 20260901005826 | 81 | 261 | 3.0 | 0.0 | 0.00 | 0.00 | 0.00 | 33 | 1017.0 |
| 20260901005549 | 81 | 290 | 4.0 | 7.0 | 0.00 | 0.00 | 0.00 | 33 | 1017.0 |
| 20260901005342 | 81 | 284 | 2.0 | 0.0 | 0.00 | 0.00 | 0.00 | 33 | 1017.0 |
| 20260901005044 | 80 | 275 | 6.0 | 7.0 | 0.00 | 0.00 | 0.00 | 33 | 1017.0 |
| 20260901004901 | 81 | 276 | 6.0 | 0.0 | 0.00 | 0.00 | 0.00 | 33 | 1017.0 |
| 20260901004520 | 81 | 267 | 2.0 | 6.0 | 0.00 | 0.00 | 0.00 | 33 | 1017.0 |
| 20260901004337 | 81 | 263 | 2.0 | 0.0 | 0.00 | 0.00 | 0.00 | 33 | 1017.0 |
| 20260901004014 | 80 | 273 | 5.0 | 6.0 | 0.00 | 0.00 | 0.00 | 33 | 1017.0 |
| 20260901003854 | 81 | 229 | 3.0 | 0.0 | 0.00 | 0.00 | 0.00 | 33 | 1017.0 |
| 20260901003544 | 80 | 229 | 4.0 | 6.0 | 0.00 | 0.00 | 0.00 | 33 | 1017.0 |
| 20260901003331 | 81 | 269 | 4.0 | 0.0 | 0.00 | 0.00 | 0.00 | 33 | 1017.0 |
| 20260901003050 | 81 | 214 | 3.0 | 7.0 | 0.00 | 0.00 | 0.00 | 33 | 1017.0 |
| 20260901002851 | 81 | 234 | 6.0 | 0.0 | 0.00 | 0.00 | 0.00 | 33 | 1017.0 |
| 20260901002520 | 81 | 228 | 3.0 | 7.0 | 0.00 | 0.00 | 0.00 | 33 | 1017.0 |
| 20260901002327 | 82 | 275 | 3.0 | 0.0 | 0.00 | 0.00 | 0.00 | 33 | 1017.0 |
| 20260901002009 | 81 | 272 | 3.0 | 6.0 | 0.00 | 0.00 | 0.00 | 33 | 1017.0 |
| 20260901001844 | 81 | 284 | 7.0 | 0.0 | 0.00 | 0.00 | 0.00 | 33 | 1017.0 |
| 20260901001541 | 81 | 287 | 4.0 | 6.0 | 0.00 | 0.00 | 0.00 | 33 | 1017.0 |
| 20260901001340 | 81 | 283 | 7.0 | 0.0 | 0.00 | 0.00 | 0.00 | 33 | 1017.0 |
| 20260901001012 | 82 | 212 | 5.0 | 6.0 | 0.00 | 0.00 | 0.00 | 33 | 1017.0 |
| 20260901000856 | 82 | 255 | 9.0 | 0.0 | 0.00 | 0.00 | 0.00 | 33 | 1017.0 |
| 20260901000545 | 82 | 258 | 4.0 | 6.0 | 0.00 | 0.00 | 0.00 | 33 | 1017.0 |
| 20260901000358 | 83 | 295 | 8.0 | 0.0 | 0.00 | 0.00 | 0.00 | 33 | 1017.0 |
| 20260901000010 | 82 | 276 | 4.0 | 8.0 | 0.00 | 0.00 | 0.00 | 33 | 1017.0 |
| 20260831235842 | 82 | 291 | 4.0 | 0.0 | 0.00 | 0.00 | 0.00 | 33 | 1017.0 |
| 20260831235559 | 82 | 286 | 4.0 | 8.0 | 0.00 | 0.00 | 0.00 | 33 | 1017.0 |
| 20260831235502 | 82 | 267 | 4.0 | 8.0 | 0.00 | 0.00 | 0.00 | 33 | 1017.0 |
| 20260831235358 | 83 | 279 | 9.0 | 0.0 | 0.00 | 0.00 | 0.00 | 33 | 1017.0 |
| 20260831235032 | 82 | 274 | 7.0 | 8.0 | 0.00 | 0.00 | 0.00 | 33 | 1017.0 |
| 20260831234833 | 83 | 265 | 6.0 | 0.0 | 0.00 | 0.00 | 0.00 | 33 | 1017.0 |
| 20260831234537 | 82 | 293 | 4.0 | 6.0 | 0.00 | 0.00 | 0.00 | 33 | 1017.0 |
| 20260831234332 | 83 | 282 | 5.0 | 0.0 | 0.00 | 0.00 | 0.00 | 33 | 1017.0 |
| 20260831234023 | 82 | 260 | 6.0 | 8.0 | 0.00 | 0.00 | 0.00 | 33 | 1017.0 |
| 20260831233851 | 83 | 302 | 3.0 | 0.0 | 0.00 | 0.00 | 0.00 | 33 | 1017.0 |
| 20260831233554 | 82 | 230 | 5.0 | 8.0 | 0.00 | 0.00 | 0.00 | 33 | 1017.0 |
| 20260831233336 | 82 | 300 | 2.0 | 0.0 | 0.00 | 0.00 | 0.00 | 33 | 1017.0 |
| 20260831233039 | 81 | 298 | 3.0 | 6.0 | 0.00 | 0.00 | 0.00 | 33 | 1017.0 |
| 20260831232853 | 81 | 212 | 3.0 | 0.0 | 0.00 | 0.00 | 0.00 | 33 | 1017.0 |
| 20260831232508 | 81 | 237 | 4.0 | 6.0 | 0.00 | 0.00 | 0.00 | 33 | 1017.0 |
| 20260831232345 | 81 | 292 | 5.0 | 0.0 | 0.00 | 0.00 | 0.00 | 33 | 1017.0 |
| 20260831232059 | 81 | 248 | 5.0 | 6.0 | 0.00 | 0.00 | 0.00 | 33 | 1017.0 |
| 20260831232003 | 81 | 282 | 4.0 | 6.0 | 0.00 | 0.00 | 0.00 | 33 | 1017.0 |
| 20260831231906 | 82 | 251 | 7.0 | 0.0 | 0.00 | 0.00 | 0.00 | 33 | 1017.0 |
| 20260831231534 | 81 | 228 | 6.0 | 8.0 | 0.00 | 0.00 | 0.00 | 33 | 1017.0 |
| 20260831231339 | 82 | 234 | 10.0 | 0.0 | 0.00 | 0.00 | 0.00 | 33 | 1017.0 |
| 20260831231005 | 82 | 285 | 3.0 | 8.0 | 0.00 | 0.00 | 0.00 | 33 | 1017.0 |
| 20260831230857 | 83 | 252 | 5.0 | 0.0 | 0.00 | 0.00 | 0.00 | 33 | 1017.0 |
| 20260831230539 | 82 | 273 | 6.0 | 6.0 | 0.00 | 0.00 | 0.00 | 33 | 1017.0 |
| 20260831230355 | 83 | 256 | 5.0 | 0.0 | 0.00 | 0.00 | 0.00 | 33 | 1017.0 |
| 20260831230013 | 82 | 226 | 2.0 | 6.0 | 0.00 | 0.00 | 0.00 | 33 | 1017.0 |
| 20260831225831 | 82 | 256 | 7.0 | 0.0 | 0.00 | 0.00 | 0.00 | 33 | 1017.0 |
| 20260831225507 | 82 | 213 | 4.0 | 9.0 | 0.00 | 0.00 | 0.00 | 33 | 1017.0 |
| 20260831225329 | 83 | 284 | 4.0 | 0.0 | 0.00 | 0.00 | 0.00 | 33 | 1017.0 |
| 20260831225059 | 82 | 241 | 6.0 | 9.0 | 0.00 | 0.00 | 0.00 | 33 | 1017.0 |
| 20260831225006 | 82 | 288 | 5.0 | 9.0 | 0.00 | 0.00 | 0.00 | 33 | 1017.0 |
| 20260831224846 | 82 | 300 | 5.0 | 0.0 | 0.00 | 0.00 | 0.00 | 33 | 1017.0 |
| 20260831224554 | 81 | 278 | 4.0 | 8.0 | 0.00 | 0.00 | 0.00 | 33 | 1017.0 |
| 20260831224342 | 81 | 266 | 10.0 | 0.0 | 0.00 | 0.00 | 0.00 | 33 | 1017.0 |
| 20260831224047 | 81 | 229 | 5.0 | 8.0 | 0.00 | 0.00 | 0.00 | 33 | 1017.0 |
| 20260831223859 | 82 | 219 | 13.0 | 0.0 | 0.00 | 0.00 | 0.00 | 33 | 1017.0 |
| 20260831223520 | 81 | 278 | 6.0 | 8.0 | 0.00 | 0.00 | 0.00 | 33 | 1017.0 |
| 20260831223337 | 83 | 196 | 6.0 | 0.0 | 0.00 | 0.00 | 0.00 | 33 | 1017.0 |
| 20260831223011 | 82 | 213 | 3.0 | 8.0 | 0.00 | 0.00 | 0.00 | 33 | 1017.0 |
| 20260831222831 | 82 | 237 | 3.0 | 0.0 | 0.00 | 0.00 | 0.00 | 33 | 1017.0 |
| 20260831222600 | 82 | 220 | 7.0 | 10.0 | 0.00 | 0.00 | 0.00 | 33 | 1017.0 |
| 20260831222502 | 82 | 243 | 4.0 | 10.0 | 0.00 | 0.00 | 0.00 | 33 | 1017.0 |
| 20260831222345 | 82 | 277 | 6.0 | 0.0 | 0.00 | 0.00 | 0.00 | 33 | 1017.0 |
| 20260831222052 | 82 | 217 | 5.0 | 11.0 | 0.00 | 0.00 | 0.00 | 33 | 1017.0 |
| 20260831221903 | 83 | 238 | 2.0 | 0.0 | 0.00 | 0.00 | 0.00 | 33 | 1017.0 |
| 20260831221527 | 83 | 252 | 7.0 | 11.0 | 0.00 | 0.00 | 0.00 | 33 | 1017.0 |
| 20260831221338 | 84 | 268 | 10.0 | 0.0 | 0.00 | 0.00 | 0.00 | 33 | 1017.0 |
| 20260831221020 | 83 | 299 | 6.0 | 13.0 | 0.00 | 0.00 | 0.00 | 33 | 1017.0 |
| 20260831220834 | 84 | 262 | 11.0 | 0.0 | 0.00 | 0.00 | 0.00 | 33 | 1017.0 |
| 20260831220516 | 83 | 288 | 7.0 | 13.0 | 0.00 | 0.00 | 0.00 | 33 | 1017.0 |
| 20260831220332 | 83 | 275 | 10.0 | 0.0 | 0.00 | 0.00 | 0.00 | 33 | 1017.0 |
| 20260831220020 | 83 | 285 | 9.0 | 12.0 | 0.00 | 0.00 | 0.00 | 33 | 1017.0 |
| 20260831215851 | 84 | 236 | 14.0 | 0.0 | 0.00 | 0.00 | 0.00 | 33 | 1017.0 |
| 20260831215544 | 83 | 263 | 6.0 | 12.0 | 0.00 | 0.00 | 0.00 | 33 | 1017.0 |
| 20260831215347 | 84 | 264 | 9.0 | 0.0 | 0.00 | 0.00 | 0.00 | 33 | 1017.0 |
| 20260831215038 | 83 | 242 | 6.0 | 7.0 | 0.00 | 0.00 | 0.00 | 33 | 1017.0 |
| 20260831214841 | 84 | 240 | 5.0 | 0.0 | 0.00 | 0.00 | 0.00 | 33 | 1017.0 |
| 20260831214529 | 83 | 312 | 5.0 | 8.0 | 0.00 | 0.00 | 0.00 | 33 | 1017.0 |
| 20260831214336 | 83 | 215 | 6.0 | 0.0 | 0.00 | 0.00 | 0.00 | 33 | 1017.0 |
| 20260831214020 | 82 | 200 | 4.0 | 10.0 | 0.00 | 0.00 | 0.00 | 33 | 1017.0 |
| 20260831213831 | 83 | 258 | 5.0 | 0.0 | 0.00 | 0.00 | 0.00 | 33 | 1017.0 |
| 20260831213513 | 83 | 300 | 9.0 | 10.0 | 0.00 | 0.00 | 0.00 | 33 | 1017.0 |
| 20260831213347 | 83 | 290 | 10.0 | 0.0 | 0.00 | 0.00 | 0.00 | 33 | 1017.0 |
| 20260831213020 | 82 | 222 | 3.0 | 6.0 | 0.00 | 0.00 | 0.00 | 33 | 1017.0 |
| 20260831212841 | 82 | 225 | 8.0 | 0.0 | 0.00 | 0.00 | 0.00 | 33 | 1017.0 |
| 20260831212540 | 82 | 219 | 5.0 | 8.0 | 0.00 | 0.00 | 0.00 | 33 | 1017.0 |
| 20260831212339 | 82 | 213 | 6.0 | 0.0 | 0.00 | 0.00 | 0.00 | 33 | 1017.0 |
| 20260831212031 | 82 | 212 | 6.0 | 9.0 | 0.00 | 0.00 | 0.00 | 33 | 1017.0 |
| 20260831211839 | 83 | 220 | 9.0 | 0.0 | 0.00 | 0.00 | 0.00 | 33 | 1017.0 |
| 20260831211524 | 82 | 219 | 5.0 | 9.0 | 0.00 | 0.00 | 0.00 | 33 | 1017.0 |
| 20260831211354 | 82 | 257 | 6.0 | 0.0 | 0.00 | 0.00 | 0.00 | 33 | 1017.0 |
| 20260831211056 | 82 | 210 | 7.0 | 9.0 | 0.00 | 0.00 | 0.00 | 33 | 1017.0 |
| 20260831210851 | 82 | 206 | 9.0 | 0.0 | 0.00 | 0.00 | 0.00 | 33 | 1017.0 |
| 20260831210531 | 82 | 238 | 6.0 | 8.0 | 0.00 | 0.00 | 0.00 | 33 | 1017.0 |
| 20260831210347 | 82 | 233 | 8.0 | 0.0 | 0.00 | 0.00 | 0.00 | 33 | 1017.0 |
| 20260831210022 | 82 | 213 | 6.0 | 8.0 | 0.00 | 0.00 | 0.00 | 33 | 1017.0 |
| 20260831205841 | 82 | 284 | 5.0 | 0.0 | 0.00 | 0.00 | 0.00 | 33 | 1017.0 |
| 20260831205514 | 82 | 145 | 4.0 | 9.0 | 0.00 | 0.00 | 0.00 | 33 | 1017.0 |
| 20260831205336 | 82 | 265 | 5.0 | 0.0 | 0.00 | 0.00 | 0.00 | 33 | 1017.0 |
| 20260831205012 | 82 | 234 | 7.0 | 9.0 | 0.00 | 0.00 | 0.00 | 33 | 1017.0 |
| 20260831204833 | 83 | 274 | 3.0 | 0.0 | 0.00 | 0.00 | 0.00 | 33 | 1017.0 |
| 20260831204603 | 82 | 225 | 4.0 | 11.0 | 0.00 | 0.00 | 0.00 | 33 | 1017.0 |
| 20260831204504 | 82 | 217 | 5.0 | 11.0 | 0.00 | 0.00 | 0.00 | 33 | 1017.0 |
| 20260831204333 | 82 | 280 | 5.0 | 0.0 | 0.00 | 0.00 | 0.00 | 33 | 1017.0 |
| 20260831204055 | 82 | 222 | 6.0 | 11.0 | 0.00 | 0.00 | 0.00 | 33 | 1017.0 |
| 20260831203851 | 82 | 280 | 4.0 | 0.0 | 0.00 | 0.00 | 0.00 | 33 | 1017.0 |
| 20260831203528 | 82 | 236 | 6.0 | 11.0 | 0.00 | 0.00 | 0.00 | 33 | 1017.0 |
| 20260831203348 | 82 | 245 | 3.0 | 0.0 | 0.00 | 0.00 | 0.00 | 33 | 1017.0 |
| 20260831203037 | 82 | 272 | 6.0 | 6.0 | 0.00 | 0.00 | 0.00 | 33 | 1017.0 |
| 20260831202843 | 82 | 260 | 4.0 | 0.0 | 0.00 | 0.00 | 0.00 | 33 | 1017.0 |
| 20260831202515 | 83 | 231 | 4.0 | 6.0 | 0.00 | 0.00 | 0.00 | 33 | 1017.0 |
| 20260831202337 | 83 | 246 | 10.0 | 0.0 | 0.00 | 0.00 | 0.00 | 33 | 1017.0 |
| 20260831202008 | 83 | 253 | 5.0 | 7.0 | 0.00 | 0.00 | 0.00 | 33 | 1017.0 |
| 20260831201835 | 83 | 273 | 4.0 | 0.0 | 0.00 | 0.00 | 0.00 | 33 | 1017.0 |
| 20260831201602 | 82 | 234 | 4.0 | 7.0 | 0.00 | 0.00 | 0.00 | 33 | 1017.0 |
| 20260831201504 | 82 | 223 | 4.0 | 7.0 | 0.00 | 0.00 | 0.00 | 33 | 1017.0 |
| 20260831201330 | 83 | 308 | 2.0 | 0.0 | 0.00 | 0.00 | 0.00 | 33 | 1017.0 |
| 20260831201053 | 83 | 223 | 4.0 | 8.0 | 0.00 | 0.00 | 0.00 | 33 | 1017.0 |
| 20260831200844 | 83 | 241 | 9.0 | 0.0 | 0.00 | 0.00 | 0.00 | 33 | 1017.0 |
| 20260831200545 | 83 | 294 | 6.0 | 8.0 | 0.00 | 0.00 | 0.00 | 33 | 1017.0 |
| 20260831200340 | 84 | 221 | 6.0 | 0.0 | 0.00 | 0.00 | 0.00 | 33 | 1017.0 |
| 20260831200041 | 83 | 270 | 3.0 | 6.0 | 0.00 | 0.00 | 0.00 | 33 | 1017.0 |
| 20260831195833 | 83 | 263 | 2.0 | 0.0 | 0.00 | 0.00 | 0.00 | 33 | 1017.0 |
| 20260831195530 | 82 | 276 | 4.0 | 5.0 | 0.00 | 0.00 | 0.00 | 33 | 1017.0 |